NIMBUS 2 DEB, 39294

Orbit data source: Space-Track

NIMBUS 2 DEB, 39294 is space debris in SSO originally from a launch on Sun, 15 May 1966 UTC launched from the Air Force Western Test Range (AFWTR). Debris objects in space refer to the collection of defunct objects orbiting the Earth. Examples of debris include non-operational satellites, rocket bodies, and fragments generated from explosions, collisions, or faulty payload assembly.

Loading next visibility...
Identifier
39294, 1966-040BC
Orbit
SSO
Country
Flag of USUS
Related business
Manufacturer
Unknown
Mission
Spacecraft
Bus & Motor
Unknown
Mass
Unknown
Launch date (UTC)
1966-05-15 (59 years ago)
Launch vehicle
Unknown
Launch site
Air Force Western Test Range (AFWTR)
Object type
Payload
Rocket body
Debris
Shape & HBR
Unknown shape, 0.1 m
Radar Cross Section
Small (<0.1 m²)

Expand to show TLE details & history
Last TLE update: 19 hours ago

TLE from 19 hours ago
0 NIMBUS 2 DEB
1 39294U 66040BC  25286.65020857  .00002356  00000-0  39709-2 0  9995
2 39294 100.4293 175.6610 0058890  37.0541 323.4634 13.46153550586506
Epoch: 2025-10-13T15:36Z
TLE epoch observation values (Epoch: 2025-10-13T15:36:18.020Z)
Latitude
0.00006°
Longitude
-80.86404°
Altitude
1,053.965 km
Speed
7.342 km/s
True Right ascension
11h 42m 38s
True Declination
0° 00' 00"
Sunlit
Object was in daylight at epoch
Visualization orbit readout
Latitude
Unknown
Longitude
Unknown
Altitude
Unknown
Speed
Unknown
Apparent Right ascension
Unknown
Apparent Declination
Unknown
Sunlit
N/A
Visualization observer readout
Local Sidereal Time
04:42:01
Azimuth
Unknown
Elevation
Unknown
Doppler factor
Unknown
Orbital elements
Apogee altitude
1,127.733 km
Perigee altitude
1,039.846 km
Semi-major axis
7,461.926 km
Eccentricity
0.00589
Inclination
100.4293°
RAAN
175.661°
Arg. of periapsis
37.0541°
True anomaly
323.05926°
Mean anomaly
323.4634°
Eccentric anomaly
323.26157°
Mean motion
3.36718 °/min
Orbital period
106.91 mins
BSTAR
0.0039709
Loading maneuver chart data...
Computing Atmospheric mass density...
Loading historical data...
Loading historical data...
Loading historical data...
Loading historical data...
Loading historical data...
Loading historical data...
Loading historical data...

Documentation

Showing up to 5 results
|